{"data":{"norad_id":64025,"epoch":"2026-09-20T13:44:10.161312Z","epoch_age_seconds":137329,"freshness":"FRESH","line1":"1 64025U 25102D   26263.57233983  .00007601  00000+0  26855-3 0  9998","line2":"2 64025  70.0026 340.6945 0003543 244.8717 115.2091 15.29583469 75219","mean_motion":15.29583469,"eccentricity":0.0003543,"inclination_deg":70.0026,"raan_deg":340.6945,"arg_perigee_deg":244.8717,"mean_anomaly_deg":115.2091,"bstar":0.00026855,"rev_number":7521,"period_min":94.143276858335,"perigee_km":474.62774308473,"apogee_km":479.48533322587,"semimajor_km":6855.1935381553,"source":"CELESTRAK","updated_at":"2026-09-21T09:00:35.186256Z"}}